Location: Newark
(41.9000°N, 12.4833°E)
Time: 21:04:44
(UTC+00:00)

NOAA 18 - Pass Details

Date: 21 May 2019
Orbit: 840 x 861 km, 99.1° (Epoch: 20 June)

Event Time Altitude Azimuth Distance (km) Brightness Sun altitude
Exits shadow 19:10:44 - 166° (SSE) 3,415 7.9 -7.4°
Rises 19:10:45 0° 166° (SSE) 3,414 7.9 -7.4°
Reaches altitude 10° 19:13:06 10° 167° (SSE) 2,484 7.2 -7.7°
Maximum altitude 19:18:38 83° 255° (WSW) 872 5.4 -8.6°
Drops below altitude 10° 19:24:14 10° 344° (NNW) 2,508 8.6 -9.4°
Sets 19:26:37 0° 346° (NNW) 3,450 9.3 -9.7°
